This demonstration page uses our WeatherBlox Daily Observations layout. Learn more.

38.80484, -77.04692

Hourly Observations for September 1, 2016

Temp ( °F °C ) Dew Point ( °F °C ) Humidity (%) Winds ( mph kmh ) Pressure ( in mb ) Visibility ( mi km ) Precip ( " mm )
12:52 am 00:52 Mostly Cloudy 80 26.7 71 21.7 74 74 W 5 7 29.88 1012 10 16.0934 0 0
1:09 am 01:09 Cloudy 79 26.1 71 21.7 77 77 SSW 7 11 29.88 1012 10 16.0934 0 0
1:52 am 01:52 Cloudy 79 26.1 70 21.1 74 74 WNW 5 7 29.87 1012 10 16.0934 0 0.0254
2:23 am 02:23 Cloudy with Light Rain 77 25 72 22.2 85 85 N 7 11 29.85 1011 10 16.0934 0 0.0254
2:52 am 02:52 Mostly Cloudy 77 25 71 21.7 82 82 NE 7 11 29.85 1011 10 16.0934 0 0.0254
3:29 am 03:29 Mostly Cloudy 75 23.9 71 21.7 88 88 NNE 8 13 29.85 1011 10 16.0934 0 0
3:52 am 03:52 Cloudy 76 24.4 71 21.7 85 85 NE 8 13 29.85 1011 10 16.0934 0 0
4:11 am 04:11 Cloudy 76 24.4 71 21.7 85 85 NNE 7 11 29.85 1011 10 16.0934 0 0
4:52 am 04:52 Cloudy 76 24.4 72 22.2 88 88 NE 7 11 29.84 1011 10 16.0934 0 0
5:01 am 05:01 Cloudy 76 24.4 71 21.7 85 85 ENE 7 11 29.83 1010 10 16.0934 0 0
5:27 am 05:27 Mostly Cloudy 75 24 72 22 89 89 NE 8 13 29.83 1010 10 16.0934 0 0
5:52 am 05:52 Partly Cloudy 76 24.4 71 21.7 85 85 NE 5 7 29.84 1011 10 16.0934 0 0
6:07 am 06:07 Cloudy 76 24.4 71 21.7 85 85 N 7 11 29.85 1011 10 16.0934 0 0
6:39 am 06:39 Cloudy 76 24.4 71 21.7 85 85 NNE 7 11 29.85 1011 10 16.0934 0 0
6:52 am 06:52 Cloudy 76 24.4 71 21.7 85 85 NE 9 15 29.86 1011 10 16.0934 0 0
7:04 am 07:04 Cloudy 75 24 72 22 89 89 NE 7 11 29.88 1012 10 16.0934 0 0
7:35 am 07:35 Cloudy with Light Rain 75 23.9 71 21.7 88 88 NNW 13 20 29.88 1012 10 16.0934 0.01 0.254
7:52 am 07:52 Cloudy with Light Rain 74 23.3 70 21.1 88 88 N 12 19 29.87 1011 10 16.0934 0.01 0.254
8:52 am 08:52 Cloudy 75 23.9 67 19.4 76 76 N 15 24 29.88 1012 10 16.0934 0 0.0254
9:52 am 09:52 Cloudy with Light Rain 72 22.2 69 20.6 91 91 NNW 9 15 29.89 1012 9 14.48406 0.01 0.254
10:52 am 10:52 Cloudy 74 23.3 69 20.6 85 85 W 7 11 29.89 1012 10 16.0934 0 0.0254
11:52 am 11:52 Cloudy 78 25.6 69 20.6 74 74 WNW 7 11 29.89 1012 10 16.0934 0 0
12:52 pm 12:52 Cloudy 78 25.6 69 20.6 74 74 NNW 9 15 29.88 1012 10 16.0934 0 0.0254
1:52 pm 13:52 Cloudy 79 26.1 69 20.6 72 72 NNW 10 17 29.88 1012 10 16.0934 0 0.0254
2:52 pm 14:52 Cloudy 79 26.1 69 20.6 72 72 NNW 5 7 29.87 1012 10 16.0934 0 0
3:05 pm 15:05 Cloudy 80 26.7 69 20.6 69 69 VRB 7 11 29.88 1012 10 16.0934 0 0
3:12 pm 15:12 Cloudy 81 27 70 21 70 70 NNW 6 9 29.88 1012 10 16.0934 0 0
3:52 pm 15:52 Mostly Cloudy 80 26.7 69 20.6 69 69 VRB 6 9 29.86 1011 10 16.0934 0 0
4:52 pm 16:52 Mostly Cloudy 83 28.3 69 20.6 63 63 NNE 5 7 29.86 1011 10 16.0934 0 0
5:52 pm 17:52 Partly Cloudy 82 27.8 68 20 63 63 NNE 8 13 29.87 1012 10 16.0934 0 0
6:19 pm 18:19 Mostly Cloudy 82 27.8 68 20 63 63 NE 9 15 29.88 1012 10 16.0934 0 0
6:52 pm 18:52 Mostly Cloudy with Light Rain 80 26.7 67 19.4 64 64 NE 14 22 29.9 1012 10 16.0934 0 0.0254
7:08 pm 19:08 Mostly Cloudy with Light Rain 81 27 68 20 66 66 ENE 12 19 29.91 1013 10 16.0934 0 0
7:30 pm 19:30 Cloudy with Light Rain 79 26 70 21 74 74 NNE 7 11 29.91 1013 9 14.48406 0 0
7:52 pm 19:52 Mostly Cloudy 86 30 70 21 59 59 S 8 13 29.88 1012 10 16.0934 0 0
8:52 pm 20:52 Mostly Cloudy 77 25 69 20.6 77 77 NNW 3 6 29.94 1014 10 16.0934 0 0
9:52 pm 21:52 Partly Cloudy 76 24.4 71 21.7 85 85 W 6 9 29.96 1015 10 16.0934 0 0
10:52 pm 22:52 Cloudy 75 23.9 70 21.1 84 84 NNW 14 22 29.97 1015 10 16.0934 0 0
11:03 pm 23:03 Cloudy 73 23 70 21 89 89 NNW 14 22 29.97 1015 10 16.0934 0 0
11:13 pm 23:13 Cloudy with Light Rain 73 22.8 69 20.6 87 87 NNW 14 22 29.97 1015 10 16.0934 0 0.0254
11:52 pm 23:52 Cloudy 75 23.9 65 18.3 71 71 N 9 15 30 1016 10 16.0934 0 0.0254

Powered by AerisWeather